Location: Eastlake (historical)
(39.0077°N, 122.6678°W)
Time: 11:40:53
(UTC+00:00)

USA 234 - Visible Passes

Search period start: 13 April 2021 00:00
Search period end: 23 April 2021 00:00
Orbit: 1102 x 1105 km, 123.0° (Epoch: 13 April)

Date Brightness Start Highest point End Pass type
(mag) Time Alt. Az. Time Alt. Az. Time Alt. Az.
13 Apr 4.8 08:42:36 10° NE 08:45:15 26° ENE 08:45:15 26° ENE visible
13 Apr 3.9 10:25:48 10° NE 10:31:52 42° NNW 10:32:36 41° NW visible
13 Apr 5.1 12:09:12 10° NNE 12:13:43 20° NNW 12:18:15 10° WNW visible
14 Apr 5.6 08:00:31 10° ENE 08:00:44 11° ENE 08:00:44 11° ENE visible
14 Apr 3.7 09:42:51 10° NE 09:48:04 58° NNE 09:48:04 58° NNE visible
14 Apr 4.7 11:26:22 10° NNE 11:31:40 27° NNW 11:35:25 16° WNW visible
15 Apr 4.5 09:00:09 10° NE 09:03:33 32° ENE 09:03:33 32° ENE visible
15 Apr 4.0 10:43:22 10° NE 10:49:26 42° NNW 10:50:54 37° WNW visible
15 Apr 5.1 12:26:45 10° NNE 12:31:17 20° NNW 12:35:48 10° WNW visible
16 Apr 5.4 08:18:05 10° ENE 08:19:03 14° ENE 08:19:03 14° ENE visible
16 Apr 3.4 10:00:25 10° NE 10:06:24 69° N 10:06:24 69° N visible
16 Apr 4.7 11:43:56 10° NNE 11:49:14 27° NNW 11:53:44 13° WNW visible
17 Apr 4.2 09:17:43 10° NE 09:21:54 40° ENE 09:21:54 40° ENE visible
17 Apr 4.0 11:00:56 10° NE 11:06:59 42° NNW 11:09:14 32° WNW visible
17 Apr 5.1 12:44:19 10° NNE 12:48:50 20° NNW 12:53:21 10° WNW visible
18 Apr 5.2 08:35:37 10° ENE 08:37:24 17° ENE 08:37:24 17° ENE visible
18 Apr 3.2 10:17:59 10° NE 10:24:29 72° NW 10:24:45 72° WNW visible
18 Apr 4.7 12:01:30 10° NNE 12:06:47 27° NNW 12:12:05 10° WNW visible
19 Apr 3.8 09:35:16 10° NE 09:40:15 49° E 09:40:15 49° E visible
19 Apr 4.0 11:18:30 10° NE 11:24:33 42° NNW 11:27:36 26° W visible
20 Apr 5.0 08:53:11 10° ENE 08:55:46 21° E 08:55:46 21° E visible
20 Apr 3.2 10:35:32 10° NE 10:42:04 72° NW 10:43:07 61° W visible
20 Apr 4.6 12:19:03 10° NNE 12:24:22 27° NNW 12:29:38 10° WNW visible
21 Apr 3.5 09:52:50 10° NE 09:58:39 59° ESE 09:58:39 59° ESE visible
21 Apr 4.0 11:36:04 10° NE 11:42:06 41° NNW 11:46:00 21° W visible
22 Apr 4.7 09:10:44 10° ENE 09:14:11 25° E 09:14:11 25° E visible
22 Apr 3.3 10:53:06 10° NE 10:59:38 72° NW 11:01:32 48° WSW visible
22 Apr 4.6 12:36:38 10° NNE 12:41:54 27° NNW 12:47:11 10° WNW visible
